GORIZONT 25 [-]

Last updated on Oct. 25, 2020, 5:56 a.m. UTC

1 21922U 92017A   20298.09175840 -.00000308  00000-0  00000-0 0  9992
2 21922  14.8266 358.6601 0028425  58.0397 324.9762  0.99854133104355
UTC
Height (km)
Latitude
Longitude
Inclination
Orbital Period
UTC large
Height (km)
Speed (km/s)
/
Latitude / Longitude
Inclination (degrees)
Orbital Period (minutes)
Azimuth
Elevation
Range (km)
Doppler Factor
iOS Compass Heading
iOS Angle

Next 30 passes for location: Hong Kong

Rise time Rise Azimuth (degrees) Set time Set Azimuth (degrees) Duration Max altitude (degrees)

No matching passes for this satellites